Temperature
25 24 24 24 25 25 25 24 24 24 25 25 24 23 24 24 24 24 23 23 22 22 21 21 21 20 20 20 20 19 19 18 18 17 17 17 17 16 16 16 16 16 16 16
24 24 25 25 25 25 25 24 24 25 26 25 24 23 24 24 23 23 23 22 22 22 21 21 20 20 20 20 20 19 19 18 18 18 17 17 17 16 16 16 16 16 16 15
24 25 26 25 25 25 25 24 24 24 25 25 24 23 23 23 23 22 22 22 22 21 21 20 20 20 20 20 19 19 19 19 18 18 17 17 17 16 16 16 16 16 15 15
25 25 25 25 25 25 24 25 25 24 24 23 24 22 23 23 22 22 22 22 22 21 21 20 20 20 19 19 19 19 19 18 18 17 17 17 17 16 16 16 16 16 16 15
25 25 25 24 25 25 25 25 25 24 24 23 24 23 23 23 22 22 22 22 22 21 21 20 20 19 19 19 19 18 18 18 18 17 17 17 17 16 16 16 16 16 15 15
25 26 25 25 25 25 25 25 25 24 24 22 24 23 22 23 23 22 22 22 21 21 21 20 20 19 19 19 18 18 18 18 17 17 17 17 17 16 16 16 16 16 15 15
24 25 25 25 25 25 25 23 22 22 22 22 25 24 23 23 24 23 22 22 22 21 21 20 19 19 19 18 18 18 17 17 17 17 17 17 17 16 16 16 16 15 15 15
23 23 25 25 24 24 24 24 22 21 22 23 24 23 23 24 23 23 22 22 21 21 20 19 19 18 18 18 17 17 17 17 17 17 16 16 16 16 16 16 16 15 15 15
23 23 25 25 25 25 24 24 24 23 23 22 23 23 23 23 23 22 22 21 21 20 20 19 18 18 18 17 17 17 17 17 17 16 16 16 16 16 16 16 15 15 15 15
23 23 24 24 25 25 24 24 24 23 21 21 23 23 22 21 22 22 21 21 20 20 19 19 18 17 17 17 16 16 16 16 16 16 16 16 16 16 15 15 15 15 15 15
23 22 23 23 23 23 24 23 23 23 23 22 21 22 24 22 22 22 22 21 20 20 19 18 18 17 17 16 16 16 16 16 16 16 16 16 16 15 15 15 15 15 15 15
23 22 22 23 24 24 24 24 23 22 22 22 21 21 23 23 23 22 22 21 20 19 19 18 17 17 16 16 16 15 15 15 15 15 15 15 15 15 15 15 15 15 14 14
22 22 21 22 22 23 23 23 23 23 22 22 21 21 23 22 22 22 21 21 20 19 18 18 17 16 16 16 15 15 15 15 15 15 15 15 15 14 14 14 14 14 14 14
21 22 21 21 22 22 22 23 23 22 21 21 22 22 22 21 21 21 21 20 20 19 18 17 17 16 16 15 15 15 15 14 14 14 14 14 14 14 14 14 14 14 14 14
22 21 22 22 23 23 22 22 22 22 22 21 22 22 22 21 21 21 21 20 19 19 18 17 17 16 16 15 15 15 14 14 14 14 14 14 14 14 14 14 14 13 13 13
21 21 21 21 22 22 22 22 22 22 22 22 22 22 22 22 21 21 20 20 19 19 18 17 17 16 15 15 14 14 14 14 13 13 13 13 13 13 13 13 13 13 13 13
21 20 20 20 21 21 21 22 22 22 22 22 21 21 22 21 21 20 20 19 19 18 17 17 16 16 15 15 14 14 14 13 13 13 13 13 13 12 13 13 12 12 12 12
20 20 20 20 20 19 21 22 22 22 22 22 22 22 21 21 20 19 19 18 18 17 17 16 16 15 15 14 14 14 13 13 13 12 12 12 12 12 12 12 12 12 12 12
20 19 19 19 19 20 21 22 22 21 21 22 21 21 21 20 19 19 18 18 17 17 16 16 15 15 14 14 14 13 13 12 12 12 12 12 12 12 12 12 12 12 11 11
20 20 18 18 18 18 20 21 21 21 19 20 20 20 20 19 18 17 17 17 16 16 15 15 15 14 14 14 13 13 12 12 12 12 12 12 12 12 12 12 11 11 11 11
18 18 17 17 17 19 20 20 20 18 18 19 19 19 19 18 18 17 16 16 15 15 14 14 14 14 13 13 13 12 12 12 12 11 11 11 11 11 11 11 11 11 11 11
18 18 18 18 17 18 19 19 19 18 19 19 18 18 17 17 17 16 15 15 14 14 14 13 13 13 13 12 12 12 12 12 11 11 11 11 11 11 11 11 10 10 10 10
19 19 18 19 18 18 18 18 18 18 18 18 17 17 16 16 16 15 15 14 14 13 13 13 13 12 12 12 12 12 12 11 11 11 11 11 11 10 10 10 10 10 10 10
19 19 19 18 18 19 18 18 17 17 17 17 16 16 16 15 15 14 14 14 13 13 12 12 12 12 12 12 11 11 11 11 11 11 10 10 10 10 10 9 9 9 9 9
17 18 17 17 18 18 17 17 16 16 16 16 15 15 15 14 14 14 13 13 13 12 12 12 12 11 11 11 11 11 11 11 10 10 10 10 9 9 9 9 9 9 9 8
17 17 16 16 17 17 16 16 15 15 15 15 15 14 14 14 13 13 13 12 12 12 11 11 11 11 11 11 11 10 10 10 10 9 9 9 9 9 8 8 8 8 8 8
Wind_Speed
8 7 6 6 5 6 4 4 3 2 3 3 3 3 4 5 6 5 5 5 6 7 7 7 5 5 5 5 6 8 7 5 5 4 3 3 2 2 2 2 3 2 2 3
7 9 6 3 3 5 5 5 3 2 3 3 3 3 3 4 5 4 4 4 4 5 7 6 6 5 5 5 4 7 6 6 5 3 3 3 3 2 3 2 2 1 1 2
9 4 4 5 5 6 7 5 3 3 4 5 4 5 6 5 5 5 3 3 5 5 5 6 5 5 4 4 4 4 5 6 6 5 3 3 3 1 2 2 2 1 1 2
6 6 5 7 7 7 5 3 4 5 6 5 5 4 5 8 7 6 5 4 4 5 5 5 4 4 4 3 4 4 4 4 5 5 4 4 3 2 3 3 3 3 3 2
6 6 7 8 6 4 4 4 6 8 8 9 9 6 4 9 8 8 7 6 4 5 5 5 5 4 5 4 3 3 3 3 4 4 5 3 2 2 1 2 3 3 2 2
7 6 6 5 4 4 4 7 9 9 7 9 10 7 3 6 7 8 8 7 7 6 6 5 5 4 4 5 3 2 3 3 3 3 4 4 4 3 2 2 3 2 2 3
9 9 7 4 6 6 6 6 4 5 6 7 6 5 2 6 7 7 7 6 5 4 4 4 4 4 4 5 4 3 3 3 3 4 4 5 5 4 4 3 3 3 2 2
8 8 9 7 6 5 8 8 5 4 4 3 3 2 5 8 7 7 6 5 4 4 4 4 4 3 4 4 3 3 3 3 4 4 4 4 4 3 3 3 3 3 2 2
5 4 5 7 7 7 7 7 7 7 10 8 3 4 6 7 7 7 7 6 5 4 4 5 4 3 3 3 2 2 3 3 3 4 3 2 3 3 3 2 2 3 2 2
8 6 4 5 6 9 9 8 6 6 5 6 4 4 5 8 8 7 7 6 5 5 5 5 4 3 3 3 2 2 2 2 2 2 2 2 3 2 2 3 2 2 2 2
7 7 6 6 8 8 8 9 7 6 7 5 5 1 3 7 7 7 6 6 6 5 5 4 4 3 3 3 2 1 1 1 1 1 2 2 3 2 2 2 3 3 2 3
4 6 8 9 6 5 7 8 8 6 6 6 6 1 4 5 5 5 5 5 6 6 5 4 4 3 3 3 2 1 1 1 1 1 1 1 2 2 2 2 2 2 2 2
3 5 7 6 5 6 7 9 9 8 8 7 7 2 4 4 4 5 5 4 5 5 5 4 4 3 3 2 2 1 1 1 1 1 0 1 1 1 1 1 2 2 3 3
4 8 9 9 5 4 7 9 9 9 8 8 8 3 4 4 4 4 5 4 4 4 4 4 4 3 3 2 2 1 1 2 1 1 1 1 1 1 1 1 1 1 2 3
5 9 12 12 11 9 10 11 11 12 11 11 9 6 3 4 3 4 4 4 4 4 4 4 4 3 3 2 2 2 2 1 1 1 1 1 1 1 0 1 1 1 1 1
6 9 11 13 12 12 12 12 12 12 12 12 10 7 2 1 1 2 2 3 4 3 3 3 4 4 4 3 2 2 2 1 1 1 1 1 1 1 0 1 1 1 1 1
7 9 10 11 11 10 12 10 10 8 8 8 9 5 1 2 1 1 1 1 2 2 2 2 2 3 3 3 2 2 1 1 1 1 1 2 1 1 1 0 1 1 1 1
9 9 7 8 10 11 5 2 4 6 6 5 5 2 0 1 2 1 1 1 1 1 2 2 1 1 1 2 2 2 2 1 1 0 0 1 2 2 1 1 1 1 1 2
9 8 6 6 9 9 6 4 3 5 6 3 3 2 1 2 1 1 2 2 2 1 1 1 1 1 1 1 2 2 2 2 1 0 0 1 1 2 2 2 2 1 1 1
9 8 7 7 7 7 2 2 3 3 4 1 1 2 1 1 2 1 3 4 3 3 2 2 1 1 1 2 1 2 2 2 1 0 1 1 0 1 2 3 2 1 1 1
8 8 10 10 9 6 1 2 0 3 1 4 4 3 2 1 1 3 4 4 4 3 3 2 2 1 1 2 1 1 2 2 1 0 1 0 0 0 1 1 1 1 1 1
7 6 8 8 9 5 3 1 0 3 4 4 4 4 4 3 3 4 4 4 3 3 2 2 1 1 1 2 2 1 1 1 1 1 1 1 1 1 2 1 0 1 1 1
6 5 3 4 2 3 2 2 3 4 3 3 3 3 3 2 2 2 2 2 2 1 1 1 1 1 1 1 2 1 1 1 2 2 1 1 1 2 2 2 1 1 1 1
5 3 5 5 3 1 1 1 2 3 3 4 3 2 2 1 1 1 0 0 1 0 0 1 1 1 1 1 1 1 1 1 2 2 2 1 1 2 2 2 1 1 1 0
5 4 6 8 5 3 1 1 2 2 2 3 2 1 1 1 1 1 1 1 0 0 0 1 1 1 1 1 1 2 1 1 1 1 2 2 1 1 1 2 2 1 1 2
8 7 7 6 4 4 2 3 2 2 3 3 2 2 1 1 1 2 2 1 1 1 1 1 1 2 2 2 2 2 2 1 1 1 1 1 1 1 1 2 2 2 2 2
Wind_Direction
202 220 231 227 233 262 264 260 253 227 184 195 207 197 194 176 185 181 177 170 166 163 163 148 143 138 139 137 136 132 143 140 128 129 128 124 122 125 115 115 95 67 70 99
217 225 229 244 251 253 256 254 253 244 214 210 215 219 207 184 181 170 164 158 159 158 153 143 154 158 153 145 144 141 145 141 132 132 142 143 127 137 126 126 120 127 101 95
226 224 204 215 226 240 248 250 252 253 265 249 229 233 195 174 162 150 167 169 155 152 148 149 162 154 152 151 150 142 146 144 143 149 136 113 109 106 126 150 148 174 166 139
236 229 237 232 229 242 259 280 270 252 255 256 231 248 203 163 161 170 178 186 169 160 156 154 160 152 158 160 150 152 156 154 147 145 143 154 160 171 180 165 164 183 170 148
234 210 229 237 239 251 272 282 267 258 255 264 248 251 198 164 171 175 175 177 177 160 165 164 157 156 165 147 137 148 145 141 139 143 152 168 175 182 164 149 155 171 170 169
249 230 233 240 249 258 267 264 258 248 247 252 240 239 207 174 171 166 168 174 178 169 167 169 158 154 143 122 130 145 141 142 142 152 161 181 185 176 167 166 170 183 182 190
232 223 218 221 234 227 242 256 259 234 220 237 216 220 165 130 131 142 153 159 161 158 160 149 138 138 135 130 138 154 157 160 166 184 191 196 183 180 189 187 183 184 192 192
239 216 201 202 229 244 238 243 257 281 283 284 226 198 127 116 114 122 130 128 132 141 144 135 132 130 133 137 144 174 182 185 185 201 212 201 174 172 186 182 172 183 189 191
269 226 181 193 217 243 249 246 257 276 285 281 223 157 132 132 136 137 141 144 151 144 135 133 129 130 128 136 151 186 186 198 194 203 203 195 175 173 182 177 176 176 178 184
283 286 230 192 216 227 248 270 269 256 274 277 267 199 169 166 161 156 154 155 152 146 141 128 124 127 131 138 160 187 192 207 205 189 193 196 170 179 172 171 175 164 160 154
272 269 244 208 216 231 225 241 257 270 265 276 287 315 101 146 154 157 156 153 150 144 132 128 128 135 129 120 125 133 173 162 181 204 198 188 170 172 173 178 173 164 171 168
248 271 260 237 217 227 245 248 251 257 271 278 279 258 109 122 131 136 139 143 144 140 136 138 140 142 136 133 138 149 132 141 167 182 215 186 150 165 175 171 174 170 163 170
283 257 261 242 212 209 235 242 251 265 271 269 272 201 137 120 129 126 131 140 142 141 145 146 149 155 151 145 154 162 143 87 87 123 213 191 163 173 198 192 181 182 178 176
291 258 261 267 288 255 252 253 247 251 259 266 269 262 182 179 164 142 140 146 147 158 159 155 157 162 155 158 169 166 125 107 89 133 172 220 184 169 192 234 189 199 185 176
252 262 270 276 286 279 265 260 255 247 252 263 276 275 229 200 180 156 159 161 167 173 169 163 168 171 165 170 186 173 141 127 123 143 172 213 215 118 158 199 185 221 182 187
246 265 275 275 270 269 272 261 255 251 252 259 269 275 283 230 170 178 183 173 182 180 177 177 178 171 177 186 194 180 144 144 134 153 198 171 126 124 184 198 183 213 181 182
245 262 271 272 277 270 260 257 252 249 251 257 264 269 210 202 174 149 187 195 183 162 141 178 193 178 181 185 173 164 163 148 134 164 194 154 147 170 196 189 195 189 174 169
250 258 264 271 273 259 251 261 262 260 263 268 279 295 94 80 107 97 83 109 153 141 158 175 176 180 185 176 159 157 147 132 132 190 220 169 168 181 189 178 212 191 177 173
239 253 261 262 267 270 259 259 266 256 265 281 289 325 35 57 94 122 95 96 82 100 119 132 149 175 182 134 126 140 145 143 139 102 326 244 194 176 174 180 205 206 179 194
229 238 246 256 264 265 286 38 1 294 256 14 359 6 38 47 251 143 82 76 69 77 84 93 106 107 115 100 97 143 150 139 144 234 285 301 241 175 185 186 199 193 164 216
213 225 233 247 257 263 359 84 325 261 3 37 36 37 24 329 8 72 75 76 71 70 72 75 95 106 111 119 133 170 158 162 171 104 33 27 50 166 157 169 172 155 153 180
232 233 231 235 244 244 97 134 308 24 29 25 38 42 25 27 43 58 65 79 86 83 82 80 83 97 106 130 152 177 171 160 118 90 74 66 59 70 77 91 150 164 141 152
228 239 264 256 255 102 113 60 30 5 351 12 22 35 37 34 38 54 56 72 85 92 121 130 127 124 121 139 152 175 182 138 141 135 118 94 86 86 98 107 99 90 108 141
271 282 270 270 255 173 142 67 33 1 353 7 20 23 9 5 34 35 46 117 135 130 119 132 120 143 172 176 160 148 118 133 147 149 131 104 88 81 95 105 103 87 82 99
285 286 273 268 272 265 231 44 27 347 345 349 353 341 319 317 294 287 266 245 203 204 261 160 165 198 213 207 150 121 121 129 143 131 126 118 105 114 115 104 95 95 79 105
258 258 257 266 302 309 323 8 3 328 309 306 304 303 300 292 281 275 268 258 236 213 210 215 209 203 200 191 153 125 135 143 135 120 114 119 113 124 137 135 102 96 96 83
Height
1488 1491 1492 1489 1488 1489 1489 1492 1495 1492 1488 1491 1495 1497 1496 1496 1498 1500 1502 1504 1507 1509 1512 1514 1516 1518 1520 1522 1523 1524 1526 1528 1528 1529 1530 1531 1532 1532 1533 1534 1534 1535 1535 1536
1488 1490 1486 1484 1485 1487 1489 1493 1494 1490 1487 1490 1494 1496 1494 1495 1496 1498 1500 1503 1506 1508 1510 1513 1515 1517 1519 1520 1522 1523 1525 1526 1527 1528 1529 1530 1531 1532 1532 1533 1533 1534 1535 1535
1488 1486 1483 1485 1487 1489 1489 1491 1492 1494 1490 1488 1493 1498 1494 1494 1495 1498 1500 1501 1504 1507 1509 1511 1513 1514 1517 1518 1520 1522 1523 1525 1526 1527 1528 1529 1530 1531 1532 1532 1533 1533 1534 1534
1483 1482 1483 1485 1487 1487 1492 1485 1487 1490 1496 1497 1493 1508 1495 1492 1494 1496 1498 1500 1502 1505 1507 1510 1511 1513 1515 1517 1518 1520 1521 1523 1524 1525 1526 1528 1528 1529 1530 1531 1531 1532 1533 1533
1482 1481 1483 1486 1484 1485 1487 1484 1486 1488 1492 1497 1491 1499 1495 1488 1494 1494 1496 1499 1501 1503 1506 1508 1510 1512 1513 1515 1516 1518 1520 1521 1522 1524 1525 1526 1527 1528 1529 1530 1530 1531 1531 1532
1479 1479 1480 1481 1482 1483 1484 1486 1485 1485 1491 1503 1490 1495 1496 1488 1488 1490 1493 1496 1499 1502 1504 1507 1508 1510 1512 1513 1514 1516 1518 1519 1520 1521 1522 1524 1525 1526 1527 1528 1528 1529 1529 1530
1482 1479 1478 1480 1483 1484 1485 1494 1503 1504 1505 1499 1480 1487 1491 1481 1482 1486 1490 1494 1497 1500 1502 1505 1507 1508 1510 1511 1512 1514 1516 1517 1518 1519 1520 1521 1522 1523 1524 1525 1526 1527 1527 1528
1486 1486 1477 1478 1483 1486 1485 1490 1507 1513 1506 1493 1481 1488 1486 1479 1482 1486 1489 1493 1496 1498 1501 1503 1505 1507 1508 1510 1511 1512 1514 1515 1516 1517 1518 1519 1520 1521 1522 1523 1524 1524 1525 1526
1485 1483 1474 1475 1478 1481 1486 1487 1484 1495 1494 1497 1487 1485 1483 1481 1483 1486 1489 1492 1495 1497 1500 1502 1504 1505 1507 1508 1509 1511 1512 1513 1514 1514 1515 1516 1518 1518 1519 1520 1521 1522 1523 1523
1480 1485 1477 1475 1478 1479 1481 1482 1486 1493 1503 1505 1491 1486 1488 1485 1484 1485 1488 1491 1494 1497 1499 1500 1502 1504 1505 1507 1507 1508 1509 1510 1511 1512 1513 1514 1515 1516 1517 1517 1518 1519 1520 1521
1480 1485 1482 1478 1481 1481 1482 1484 1484 1487 1488 1500 1504 1495 1475 1479 1480 1483 1486 1490 1493 1495 1497 1499 1501 1503 1504 1505 1506 1507 1507 1508 1508 1509 1510 1511 1512 1513 1514 1515 1515 1516 1517 1518
1479 1483 1484 1478 1472 1473 1476 1479 1482 1494 1493 1488 1495 1494 1474 1476 1479 1482 1485 1488 1491 1494 1496 1498 1500 1501 1502 1503 1504 1504 1505 1505 1505 1506 1507 1508 1509 1510 1511 1512 1513 1513 1514 1515
1480 1484 1490 1487 1483 1478 1478 1476 1477 1481 1486 1490 1495 1493 1476 1477 1479 1482 1485 1488 1490 1493 1495 1497 1498 1500 1500 1501 1502 1502 1502 1503 1503 1503 1504 1505 1506 1507 1508 1509 1510 1510 1511 1512
1482 1482 1486 1492 1484 1479 1480 1477 1476 1481 1489 1489 1485 1483 1479 1479 1480 1481 1484 1486 1489 1491 1493 1495 1496 1497 1498 1499 1500 1500 1500 1500 1501 1501 1501 1502 1502 1504 1505 1506 1507 1507 1508 1509
1481 1483 1478 1475 1473 1473 1475 1475 1475 1477 1478 1483 1479 1477 1476 1477 1478 1480 1483 1485 1487 1489 1491 1492 1494 1495 1496 1497 1498 1498 1498 1498 1498 1499 1499 1499 1500 1501 1502 1502 1503 1504 1505 1506
1479 1481 1479 1477 1472 1471 1472 1471 1471 1471 1472 1473 1474 1474 1471 1474 1476 1479 1481 1483 1485 1487 1489 1490 1492 1493 1494 1495 1495 1496 1496 1496 1496 1496 1496 1497 1497 1498 1498 1499 1500 1501 1502 1503
1478 1480 1483 1481 1473 1473 1476 1468 1467 1468 1467 1469 1474 1473 1470 1473 1475 1478 1479 1481 1483 1485 1486 1488 1489 1490 1491 1492 1492 1493 1493 1494 1494 1494 1494 1495 1495 1495 1496 1496 1497 1498 1498 1500
1477 1479 1480 1481 1479 1487 1471 1460 1461 1464 1464 1464 1466 1467 1469 1471 1474 1477 1478 1480 1481 1483 1484 1485 1487 1487 1488 1489 1489 1490 1491 1491 1491 1492 1492 1492 1492 1493 1493 1494 1494 1495 1496 1497
1474 1478 1481 1482 1483 1474 1465 1460 1460 1464 1465 1463 1465 1466 1469 1471 1474 1476 1478 1479 1480 1481 1483 1484 1485 1485 1486 1487 1487 1488 1488 1489 1489 1489 1489 1489 1490 1490 1490 1491 1492 1492 1493 1494
1471 1473 1480 1481 1485 1482 1469 1461 1460 1464 1469 1464 1465 1467 1469 1471 1476 1477 1477 1478 1479 1480 1481 1482 1483 1483 1484 1484 1485 1486 1486 1486 1486 1487 1487 1487 1487 1487 1488 1488 1489 1490 1491 1492
1475 1476 1479 1481 1481 1472 1464 1463 1464 1474 1473 1467 1467 1468 1470 1472 1474 1476 1476 1477 1478 1479 1479 1480 1481 1481 1482 1482 1483 1483 1484 1484 1484 1485 1485 1485 1484 1485 1486 1486 1487 1487 1488 1489
1469 1472 1473 1474 1478 1475 1464 1464 1468 1470 1468 1468 1468 1470 1472 1473 1474 1474 1475 1476 1477 1477 1478 1478 1479 1480 1480 1481 1481 1481 1481 1482 1482 1483 1483 1483 1482 1483 1483 1484 1484 1485 1486 1487
1462 1464 1465 1466 1468 1465 1464 1465 1467 1468 1469 1469 1469 1471 1472 1473 1474 1474 1475 1476 1476 1476 1477 1477 1478 1478 1478 1479 1479 1479 1480 1480 1480 1481 1481 1481 1481 1481 1481 1481 1482 1483 1484 1484
1459 1459 1461 1462 1461 1462 1463 1465 1467 1468 1468 1469 1470 1471 1471 1472 1473 1474 1474 1474 1475 1475 1475 1475 1476 1476 1476 1477 1477 1478 1478 1478 1479 1479 1479 1479 1479 1479 1480 1480 1480 1481 1481 1481
1462 1461 1461 1461 1461 1462 1462 1464 1466 1467 1468 1469 1469 1470 1470 1471 1472 1472 1472 1473 1473 1473 1473 1473 1473 1474 1474 1474 1475 1475 1476 1476 1476 1477 1477 1477 1477 1478 1478 1478 1478 1478 1479 1480
1460 1460 1462 1462 1462 1462 1463 1464 1464 1466 1467 1467 1468 1468 1469 1469 1470 1470 1470 1471 1471 1470 1471 1471 1471 1471 1471 1472 1472 1472 1473 1473 1474 1474 1475 1475 1475 1476 1476 1476 1476 1477 1478 1478